User: anonymous   Login
Location: Central Coast
(33.3208°S, 151.2336°E)
Time: 04:08:26
(UTC+10:00)
Language:

Envisat - Orbit

View from above orbital plane
View from above orbital plane
View from above satellite
View from above satellite

Ground track
Ground track

The orbit data is extracted from the following two-line orbital elements,

1 27386U 02009A   18199.19772788 -.00000020  00000-0  71176-5 0  9994
2 27386  98.1821 231.7937 0001361  96.5447 303.6234 14.37925941857988
Epoch (UTC): 18 July 2018 04:44:43
Eccentricity: 0.0001361
inclination: 98.1821°
perigee height: 764 km
apogee height: 766 km
right ascension of ascending node: 231.7937°
argument of perigee: 96.5447°
revolutions per day: 14.37925941
mean anomaly at epoch: 303.6234°
orbit number at epoch: 85798

The dashed part of the orbit path shows where the satellite is in the earth's shadow,  

DLR